This demonstration page uses our WeatherBlox Daily Observations layout. Learn more.

Left ArrowRight Arrow

39.92423, -83.80882

Hourly Observations for July 30, 2020

Temp ( °F °C ) Dew Point ( °F °C ) Humidity (%) Winds ( mph kmh ) Pressure ( in mb ) Visibility ( mi km ) Precip ( " mm )
12:56 am 00:56 Clear 70 21.1 70 21.1 100 100 N N/A 29.94 1014 10 16 N/A
1:56 am 01:56 Clear 69 20.6 69 20.6 100 100 N N/A 29.93 1014 10 16 N/A
2:56 am 02:56 Clear 69 20.6 69 20.6 100 100 N N/A 29.91 1013 10 16 N/A
3:56 am 03:56 Clear 69 20.6 69 20.6 100 100 N N/A 29.91 1013 10 16 N/A
4:56 am 04:56 Mostly Cloudy 67 19.4 67 19.4 100 100 N N/A 29.90 1013 10 16 N/A
5:56 am 05:56 Partly Cloudy 68 20 68 20 100 100 N N/A 29.91 1013 10 16 N/A
6:56 am 06:56 Mostly Cloudy 69 20.6 69 20.6 100 100 N N/A 29.91 1013 10 16 N/A
7:56 am 07:56 Sunny 70 21.1 70 21.1 100 100 N N/A 29.91 1013 10 16 N/A
8:56 am 08:56 Sunny 73 22.8 73 22.8 100 100 N N/A 29.91 1013 10 16 N/A
9:56 am 09:56 Partly Cloudy 75 23.9 73 22.8 94 94 N N/A 29.91 1013 10 16 N/A
10:56 am 10:56 Mostly Sunny 76 24.4 73 22.8 91 91 N N/A 29.91 1013 10 16 N/A
11:56 am 11:56 Cloudy with Light Rain 76 24.4 76 24.4 100 100 SSE 3 6 29.94 1014 10 16 0.00 0.00
12:56 pm 12:56 Cloudy with Light Rain 74 23.3 74 23.3 100 100 S 5 7 29.92 1013 10 16 0.02 0.51
1:56 pm 13:56 Cloudy with Light Rain 75 23.9 74 23.3 96 96 WSW 3 6 29.90 1012 10 16 0.01 0.25
2:56 pm 14:56 Cloudy with Light Rain 74 23.3 74 23.3 100 100 W 5 7 29.87 1012 10 16 0.00 0.00
3:56 pm 15:56 Cloudy with Light Rain 74 23.3 74 23.3 100 100 N N/A 29.87 1011 10 16 0.01 0.25
4:56 pm 16:56 Mostly Cloudy with Light Rain 73 22.8 73 22.8 100 100 NNE 3 6 29.86 1011 10 16 0.01 0.25
5:56 pm 17:56 Cloudy with Light Rain 73 22.8 73 22.8 100 100 NE 7 11 29.85 1011 10 16 0.00 0.00
6:56 pm 18:56 Cloudy with Light Rain 72 22.2 72 22.2 100 100 ENE 5 7 29.83 1010 10 16 0.01 0.25
7:06 pm 19:06 Cloudy with Light Rain 72 22 72 22 100 100 NE 6 9 29.81 1010 10 16 0.00 0.00
7:56 pm 19:56 Cloudy with Light Rain 70 21.1 70 21.1 100 100 E 7 11 29.85 1011 10 16 0.01 0.25
8:56 pm 20:56 Cloudy with Light Rain 69 20.6 69 20.6 100 100 NNE 3 6 29.85 1011 10 16 0.02 0.51
9:18 pm 21:18 Cloudy with Light Rain 70 21 70 21 100 100 NE 5 7 29.84 1010 10 16 0.00 0.00
9:56 pm 21:56 Cloudy with Light Rain 69 20.6 69 20.6 100 100 NE 6 9 29.85 1011 10 16 0.00 0.00
10:56 pm 22:56 Mostly Clear with Light Rain 68 20 68 20 100 100 NNE 8 13 29.85 1011 10 16 0.01 0.25
11:11 pm 23:11 Mostly Cloudy with Light Rain 68 20 68 20 100 100 NNE 8 13 29.84 1011 10 16 0.00 0.00
11:56 pm 23:56 Cloudy 67 19.4 67 19.4 100 100 NE 9 15 29.86 1011 10 16 0.00 0.00

Powered by AerisWeather